User: anonymous   Login
Location: Bakov nad Jizerou
(50.4784°N, 14.9394°E)
Time: 20:49:45
(UTC+00:00)
Language:

RESURS O1 DEB - Orbit

View from above orbital plane
View from above orbital plane
View from above satellite
View from above satellite

Ground track
Ground track

The orbit data is extracted from the following two-line orbital elements,

1 49033U 94074EW  22021.38925415  .00005671  00000-0  70863-3 0  9993
2 49033  97.8887  72.9147 0001167 145.5834 214.5455 14.82725146 47831
Epoch (UTC): 21 January 2022 09:20:31
Eccentricity: 0.0001167
inclination: 97.8887°
perigee height: 620 km
apogee height: 621 km
right ascension of ascending node: 72.9147°
argument of perigee: 145.5834°
revolutions per day: 14.82725146
mean anomaly at epoch: 214.5455°
orbit number at epoch: 4783

The dashed part of the orbit path shows where the satellite is in the earth's shadow,  

DLR